Home > Weather > Magdeburg > Past weeks

Flag for Germany Weather for the Past 2 Weeks in Magdeburg, Saxony-Anhalt, Germany

Now
45 °F

Overcast.


Feels Like: 36 °F
Forecast: 43 / 48 °F
Wind: 21 mph from Southwest

Location: Braunschweig Wolfsburg

Current Time: Feb 8, 2016 at 11:23:59 PM

Latest Report: Feb 8, 2016 at 10:20 PM


Visibility: N/A

Pressure: 29.30 "Hg

Humidity: 71%

Dew point: 36 °F

Location of MagdeburgLocation

Historic Weather in Magdeburg — Graph

°F

Magdeburg Temperature Yesterday

Maximum temperature yesterday: 55 °F (at 11:50 AM)
Minimum temperature yesterday: 46 °F (at 5:50 PM)
Average temperature yesterday: 52 °F

High & Low Weather Summary for the Past Weeks

 TemperatureHumidityPressure
High55 °F (Feb 7, 11:50 AM)100% (Jan 25, 6:50 AM)30.30 "Hg (Jan 25, 6:50 AM)
Low37 °F (Jan 28, 7:50 PM)51% (Feb 7, 11:50 AM)29.24 "Hg (Feb 8, 1:50 PM)
Average46 °F77%29.92 "Hg
* Reported Jan 25 5:50 AM — Feb 8 9:50 PM, Magdeburg, Weather by CustomWeather, © 2016

Note: Actual official high and low records may vary slightly from our data, if they occured in-between our weather recording intervals... More about our weather records

Advertising

Magdeburg Weather History for the Previous 24 Hours

 ConditionsComfort  
Time TempWeatherWind HumidityBarometerVisibility
9:50 PM
Mon, Feb 8
45 °FLight rain. Mostly cloudy.21 mph76%29.30 "HgN/A
9:20 PM45 °FPartly cloudy.23 mph71%29.27 "HgN/A
8:50 PM45 °FPassing clouds.16 mph71%29.30 "HgN/A
8:20 PM43 °FClear.15 mph76%29.30 "Hg10 mi
7:50 PM43 °FOvercast.15 mph81%29.30 "HgN/A
7:20 PM41 °FPassing clouds.12 mph87%29.30 "HgN/A
6:50 PM43 °FPassing clouds.13 mph87%29.30 "HgN/A
6:20 PM41 °FSprinkles. Partly cloudy.8 mph93%29.27 "HgN/A
5:50 PM41 °FPassing clouds.8 mph87%29.27 "HgN/A
5:20 PM43 °FPassing clouds.12 mph81%29.24 "HgN/A
4:50 PM41 °FScattered showers. Scattered clouds.15 mph93%29.27 "HgN/A
4:20 PM43 °FSprinkles. Partly sunny.20 mph81%29.27 "HgN/A
3:50 PM50 °FScattered showers. Broken clouds.20 mph62%29.24 "HgN/A
3:20 PM50 °FBroken clouds.17 mph67%29.24 "HgN/A
2:50 PM50 °FBroken clouds.22 mph67%29.24 "HgN/A
2:20 PM50 °FPartly sunny.22 mph67%29.24 "HgN/A
1:50 PM50 °FBroken clouds.22 mph71%29.24 "HgN/A
1:20 PM50 °FScattered clouds.21 mph71%29.27 "HgN/A
12:50 PM48 °FPartly sunny.21 mph76%29.27 "HgN/A
12:20 PM46 °FPartly sunny.20 mph87%29.30 "HgN/A
11:50 AM46 °FMore clouds than sun.17 mph82%29.33 "HgN/A
11:20 AM46 °FPartly sunny.17 mph82%29.33 "HgN/A
10:50 AM48 °FBroken clouds.24 mph71%29.30 "HgN/A
10:20 AM48 °FBroken clouds.23 mph66%29.33 "HgN/A
9:50 AM48 °FBroken clouds.22 mph71%29.33 "HgN/A
9:20 AM45 °FDrizzle. Overcast.21 mph81%29.33 "HgN/A
8:50 AM46 °FLight rain. Cloudy.23 mph71%29.36 "HgN/A
8:20 AM48 °FMostly cloudy.18 mph62%29.36 "HgN/A
7:50 AM46 °FPartly sunny.21 mph66%29.36 "HgN/A
7:20 AM46 °FPartly cloudy.20 mph66%29.39 "HgN/A
6:50 AM46 °FPassing clouds.18 mph62%29.36 "HgN/A
Weather by CustomWeather, © 2016

See weather overviewHow to use our weather pages